Retour au catalogue

STARLINK-37418

ActifCommunicationsSSO
NORAD 68775·PAYLOAD·🇺🇸 United States

Lancé Apr 19, 2026 depuis Vandenberg Space Force Base

Loading…

Prochains Passages (prochaines 24 heures)

TLE

FraisSource: CelesTrak SupGP

Époque: Sep 15, 2026, 03:11 UTC

1 68775C 26086K   26258.13312500 -.00020920  00000+0 -64941-3 0  2582
2 68775  97.2841 293.6259 0001344  90.5838 198.8143 15.33450435    15

Suivez STARLINK-37418 en temps réel avec AllMySat

Download on the App Store